Tylertown, MS (39667)

4:30 AM CDT on July 26, 2017 (GMT -0500)
Doc's Weather | | Change Station
Active Advisory: Flood Warning

Elev 347 ft 31.13 °N, 90.16 °W | Updated 3 seconds ago

Mostly Cloudy
Mostly Cloudy
71.8 °F
Feels Like 71.8 °F
N
0.0
Wind Variable Wind from NE
Gusts 1.3 mph

Today
High -- | Low -- °F
--% Chance of Precip.
Yesterday
High -- | Low -- °F
Precip. -- in
Pressure 30.11 in
Visibility 5.0 miles
Clouds Mostly Cloudy 6500 ft
Dew Point 71 °F
Humidity 99%
Rainfall 0.00 in
Snow Depth Not available.
6:13 AM 7:59 PM
Waxing Crescent, 12% visible
METAR KMCB 260853Z AUTO 00000KT 5SM BR BKN065 22/21 A3012 RMK AO2 SLP194 T02220211 56003 TSNO
Pressure 30.11 in
Visibility 5.0 miles
Clouds Mostly Cloudy 6500 ft
Dew Point 71 °F
Humidity 99%
Rainfall 0.00 in
Snow Depth Not available.
6:13 AM 7:59 PM
Waxing Crescent, 12% visible
METAR KMCB 260853Z AUTO 00000KT 5SM BR BKN065 22/21 A3012 RMK AO2 SLP194 T02220211 56003 TSNO

Get Your Daily Forecast Email!

Thanks for signing up!

Be on the lookout for a verification email in your inbox.

You'll start receiving severe weather alerts in your inbox..

×

10-Day Weather Forecast

Almanac

Astronomy

Jul. 26, 2017 Rise Set
Actual Time
Civil Twilight
Nautical Twilight
Astronomical Twilight
Moon
Length of Visible Light
Length of Day
Tomorrow will be .
, % of the Moon is Illuminated

Today's Extremes

State Highs State Lows

Community

WunderPhotos

Category 6

Welcome to Category 6. This is the collective home for Weather Underground's featured writeups by Dr. Jeff Masters (right), Bob Henson (left), Chris Burt, and other regular contributors.

Nearby

Air Quality

  Air Quality AQ Index Pollutant
Not available.

Snow Depth

Station Depth Elevation

Earthquake Activity

City Distance Mag. Time & Date
Minimum magnitude displayed is 2.5.

Coastal Water Temperatures

Place Temperature

Stations

Nearby Weather Stations

Station Location Temp. Windchill Dew Point Humidity Wind Precip. Elev Updated Type
                   

Watches & Warnings

Flood Warning
Issued: 1:22 AM CDT Jul. 26, 2017 – National Weather Service

The National Weather Service in New Orleans/Baton Rouge has issued a

* Flood Warning for
the Bogue Chitto river near Tylertown.
* Until this afternoon.
* At 12:45 am Wednesday the stage was 14.8 feet.
* Minor flooding is forecast.
* Flood stage is 15.0 feet.
* Forecast... rise above flood stage by early this morning and
continue to rise to near 15.3 feet by this morning.The river will
fall below flood stage by late this morning.
* Impact... at 15.0 feet... low-lying farm and pasture land near the
river will flood.


Lat... Lon 3120 9018 3120 9033 3112 9028 3113 9015